Retour au catalogue

FENGYUN 1C DEB

ActifSSO
NORAD 30043·DEBRIS·🇨🇳 China

Lancé May 10, 1999 depuis Taiyuan Satellite Launch Center

Loading…

Prochains Passages (prochaines 24 heures)

TLE

FraisSource: Space-Track

Époque: Sep 13, 2026, 05:05 UTC

1 30043U 99025NU  26256.21189948  .00001014  00000-0  30361-3 0  9990
2 30043  98.6295 354.5557 0279558  51.8848 310.7183 14.24755431 12456

Suivez FENGYUN 1C DEB en temps réel avec AllMySat

Download on the App Store